Regional Weather Roundup
Issued by NWS Goodland, KS

Home | Current Version | Previous Version | Text Only | Print | Product List | Glossary On
Versions: 1 2 3 4 5 6 7 8 9 10 11 12 13 14 15 16 17 18 19 20 21 22 23 24 25 26 27 28 29 30 31 32 33 34 35 36 37 38 39 40 41 42 43 44 45 46 47 48 49 50
000
ASUS43 KGLD 171608
RWRGLD

GOODLAND FORECAST AREA HOURLY WEATHER ROUNDUP
NATIONAL WEATHER SERVICE GOODLAND KS
900 AM MST TUE JAN 17 2017

...OFFICIAL OBSERVATIONS...

CITY           SKY/WX    TMP DP  RH WIND       PRES   REMARKS
GOODLAND KS    SUNNY     29  22  75 W6        30.10S
HILL CITY KS   SUNNY     32  26  78 W5        30.13S
IMPERIAL NEB   SUNNY     26  17  68 W7        30.10S
MCCOOK NEB     SUNNY     28  22  78 W13       30.12R WCI  17
AKRON CO       CLOUDY    31  24  75 SW9       30.07R
BURLINGTON CO  CLOUDY    28  21  75 W7        30.10S
LIMON CO       CLOUDY    23  23 100 CALM      30.08F FOG
$$

...UNOFFICIAL OBSERVATIONS...

CITY           SKY/WX    TMP DP  RH WIND       PRES   REMARKS
NORTON KS      SUNNY     34  25  69 W13       30.11R
YUMA CO        FAIR      19  10  68 W9        30.09R
$$



USA.gov is the U.S. government's official web portal to all federal, state and local government web resources and services.